Location: Edinburgh
(55.9500°N, 3.1600°W)
Time: 12:56:59
(UTC+01:00)

ARIANE 6 FM1 Upper Stage - Visible Passes

Search period start: 12 April 2026 00:00
Search period end: 22 April 2026 00:00
Orbit: 524 x 604 km, 62.0° (Epoch: 12 April)

Date Brightness Start Highest point End Pass type
(mag) Time Alt. Az. Time Alt. Az. Time Alt. Az.
12 Apr 4.2 00:15:30 10° WNW 00:19:14 34° N 00:22:55 10° ENE visible
12 Apr 3.6 01:55:02 10° NW 01:58:53 44° NNE 02:02:43 10° E visible
12 Apr 2.4 03:34:06 10° WNW 03:38:02 61° SW 03:41:57 10° SE visible
12 Apr 4.3 05:14:25 10° W 05:16:18 13° WSW 05:18:11 10° SSW visible
12 Apr 2.9 20:56:25 10° SSW 21:00:22 46° SE 21:04:15 10° ENE visible
12 Apr 3.4 22:35:23 10° W 22:39:23 52° NNW 22:43:19 10° NE visible
13 Apr 4.2 00:15:16 10° WNW 00:18:59 34° N 00:22:40 10° ENE visible
13 Apr 3.3 01:54:40 10° NW 01:58:36 51° NNE 02:01:15 19° E visible
13 Apr 2.9 03:33:47 10° WNW 03:37:00 43° WSW 03:37:00 43° WSW visible
13 Apr 2.6 20:55:53 10° SW 20:59:56 60° SE 21:03:55 10° ENE visible
13 Apr 3.7 22:35:09 10° W 22:39:05 46° NNW 22:42:57 10° NE visible
14 Apr 4.2 00:15:01 10° WNW 00:18:44 34° N 00:22:25 10° ENE visible
14 Apr 3.0 01:54:19 10° NW 01:58:17 60° NNE 01:59:03 49° ENE visible
14 Apr 4.2 03:33:29 10° WNW 03:34:58 20° WNW 03:34:58 20° WNW visible
14 Apr 2.5 20:55:26 10° SW 20:59:32 77° SE 21:03:33 10° ENE visible
14 Apr 3.9 22:34:55 10° W 22:38:48 41° NNW 22:42:37 10° NE visible
15 Apr 4.1 00:14:44 10° WNW 00:18:29 35° N 00:21:54 12° ENE visible
15 Apr 2.7 01:53:56 10° NW 01:57:49 72° NNE 01:57:49 72° NNE visible
15 Apr 4.8 03:33:14 10° WNW 03:33:45 13° WNW 03:33:45 13° WNW visible
15 Apr 2.7 20:55:01 10° WSW 20:59:08 86° NW 21:03:11 10° NE visible
15 Apr 4.1 22:34:42 10° W 22:38:31 37° NNW 22:42:16 10° ENE visible
16 Apr 3.9 00:14:26 10° WNW 00:18:13 38° NNE 00:20:55 17° ENE visible
16 Apr 2.8 01:53:34 10° NW 01:56:52 59° NW 01:56:52 59° NW visible
16 Apr 4.1 22:34:29 10° WNW 22:38:15 35° N 22:41:57 10° ENE visible
17 Apr 3.7 00:14:06 10° NW 00:17:56 41° NNE 00:20:04 22° ENE visible
17 Apr 3.2 01:53:11 10° WNW 01:56:01 44° WNW 01:56:01 44° WNW visible
17 Apr 4.2 22:34:15 10° WNW 22:37:59 34° N 22:41:40 10° ENE visible
18 Apr 3.5 00:13:45 10° NW 00:17:38 46° NNE 00:19:18 28° ENE visible
18 Apr 3.6 01:52:49 10° WNW 01:55:16 34° WNW 01:55:16 34° WNW visible
18 Apr 4.2 22:34:00 10° WNW 22:37:43 34° N 22:41:23 10° ENE visible
19 Apr 3.2 00:13:22 10° NW 00:17:19 53° NNE 00:18:35 36° E visible
19 Apr 4.0 01:52:29 10° WNW 01:54:32 26° W 01:54:32 26° W visible
19 Apr 4.1 22:33:43 10° WNW 22:37:27 34° N 22:41:08 10° ENE visible
20 Apr 2.9 00:12:59 10° NW 00:16:59 63° NNE 00:17:54 47° E visible
20 Apr 4.3 01:52:11 10° WNW 01:53:51 21° W 01:53:51 21° W visible
20 Apr 4.0 22:33:25 10° WNW 22:37:11 36° N 22:40:53 10° ENE visible
21 Apr 2.6 00:12:35 10° NW 00:16:36 76° NNE 00:17:15 60° E visible
21 Apr 4.6 01:51:56 10° WNW 01:53:12 17° W 01:53:12 17° W visible
21 Apr 3.8 22:33:05 10° WNW 22:36:53 38° NNE 22:40:38 10° E visible
